This demonstration page uses our WeatherBlox Daily Observations layout. Learn more.

Left ArrowRight Arrow

36.19886, -115.1175

Hourly Observations for October 15, 2020

Temp ( °F °C ) Dew Point ( °F °C ) Humidity (%) Winds ( mph kmh ) Pressure ( in mb ) Visibility ( mi km ) Precip ( " mm )
12:53 am 00:53 Clear 81 27.2 28 -2.2 14 14 NNW 7 11 29.97 1015 10 16 0.00 0.00
1:53 am 01:53 Clear 78 25.6 28 -2.2 16 16 N 9 15 29.98 1015 10 16 0.00 0.00
2:53 am 02:53 Clear 77 25 27 -2.8 16 16 NNW 15 24 29.98 1015 10 16 0.00 0.00
3:53 am 03:53 Clear 75 23.9 27 -2.8 17 17 WNW 8 13 29.99 1016 10 16 0.00 0.00
4:53 am 04:53 Clear 75 23.9 28 -2.2 18 18 NW 7 11 30.00 1016 10 16 0.00 0.00
5:53 am 05:53 Clear 73 22.8 29 -1.7 19 19 W 7 11 30.02 1017 10 16 0.00 0.00
6:53 am 06:53 Sunny 75 23.9 28 -2.2 18 18 N 10 17 30.04 1017 10 16 0.00 0.00
7:53 am 07:53 Sunny 75 23.9 29 -1.7 18 18 Calm 30.07 1018 10 16 0.00 0.00
8:53 am 08:53 Sunny 81 27.2 29 -1.7 15 15 NE 7 11 30.09 1019 10 16 0.00 0.00
9:53 am 09:53 Sunny 84 28.9 28 -2.2 13 13 NE 8 13 30.10 1019 10 16 0.00 0.00
10:53 am 10:53 Sunny 84 28.9 26 -3.3 12 12 VRB 3 6 30.10 1019 10 16 0.00 0.00
11:53 am 11:53 Sunny 88 31.1 27 -2.8 11 11 NNE 5 7 30.07 1018 10 16 0.00 0.00
12:53 pm 12:53 Sunny 89 31.7 25 -3.9 10 10 E 10 17 30.05 1018 10 16 0.00 0.00
1:53 pm 13:53 Sunny 91 32.8 23 -5 8 8 E 8 13 30.02 1017 10 16 0.00 0.00
2:53 pm 14:53 Sunny 92 33.3 23 -5 8 8 E 13 20 30.00 1016 10 16 0.00 0.00
3:53 pm 15:53 Sunny 92 33.3 25 -3.9 9 9 ENE 15 24 30.00 1016 10 16 0.00 0.00
4:53 pm 16:53 Sunny 91 32.8 26 -3.3 9 9 ENE 13 20 29.99 1016 10 16 0.00 0.00
5:53 pm 17:53 Sunny 88 31.1 26 -3.3 10 10 ENE 15 24 30.00 1016 10 16 0.00 0.00
6:53 pm 18:53 Clear 85 29.4 26 -3.3 12 12 ENE 12 19 30.02 1017 10 16 0.00 0.00
7:53 pm 19:53 Clear 83 28.3 25 -3.9 12 12 ENE 14 22 30.04 1017 10 16 0.00 0.00
8:53 pm 20:53 Clear 80 26.7 24 -4.4 13 13 E 10 17 30.05 1018 10 16 0.00 0.00
9:53 pm 21:53 Clear 80 26.7 24 -4.4 13 13 ENE 12 19 30.06 1018 10 16 0.00 0.00
10:53 pm 22:53 Clear 78 25.6 24 -4.4 13 13 VRB 3 6 30.09 1019 10 16 0.00 0.00
11:53 pm 23:53 Clear 73 22.8 27 -2.8 18 18 NW 3 6 30.09 1019 10 16 0.00 0.00

Powered by AerisWeather